Els Cortals - Les Guilleries





Hora UTC 10:40
Temperatura 11.1 ºC
Humitat 91.0 %
Pressió 1007.6 hPa
Pluja 6.6 mm
Velocitat vent 4.8 km/h
Direcció vent ESE

Dades diàries 2021-05-14



Hora UTC (hivern +1h; estiu +2h)
Temperatura (ºC) Humitat (%) Pressió (hPa) Velocitat vent (km/h) Precipitació (mm)
Hora UTC Aire Humitat Pressió Vel. Dir. Vel. Max Dir. Intent. màx 5 min.
00:05 9.0 87.0 1005.6 0.0 SW 0.0 0.0
00:10 8.9 87.0 1005.5 0.0 SW 0.0 0.0
00:15 8.8 87.0 1005.6 0.0 SW 0.0 0.0
00:20 8.7 88.0 1005.6 0.0 SW 0.0 0.0
00:25 8.6 88.0 1005.8 0.0 SW 0.0 0.0
00:30 8.6 89.0 1005.7 0.0 SW 6.4 0.0
00:35 8.6 89.0 1005.7 0.0 SW 6.4 0.0
00:40 8.6 89.0 1005.7 0.0 SW 0.0 0.0
00:45 8.6 90.0 1005.6 0.0 WNW 11.3 0.0
00:50 8.7 90.0 1005.5 3.2 SW 11.3 0.0
00:55 8.7 90.0 1005.5 0.0 W 8.0 0.0
01:00 8.6 90.0 1005.5 0.0 W 8.0 0.0
01:05 8.6 90.0 1005.4 0.0 W 3.2 0.0
01:10 8.4 90.0 1005.4 0.0 W 3.2 0.0
01:15 8.3 90.0 1005.2 0.0 W 1.6 0.0
01:20 8.2 90.0 1005.2 0.0 W 0.0 0.0
01:25 8.1 90.0 1005.3 0.0 W 0.0 0.0
01:30 7.9 90.0 1005.3 0.0 W 0.0 0.0
01:35 7.9 91.0 1005.2 0.0 W 0.0 0.0
01:40 8.1 91.0 1005.2 0.0 W 0.0 0.0
01:45 8.2 91.0 1005.1 0.0 W 0.0 0.0
01:50 8.3 91.0 1005.0 0.0 W 0.0 0.0
01:55 8.3 91.0 1005.0 0.0 W 0.0 0.0
02:00 8.4 91.0 1005.0 0.0 W 0.0 0.0
02:05 8.5 91.0 1004.9 0.0 W 0.0 0.0
02:10 8.5 91.0 1005.0 0.0 W 1.6 0.0
02:15 8.6 91.0 1005.0 0.0 W 0.0 0.0
02:20 8.6 91.0 1005.0 0.0 W 0.0 0.0
02:25 8.7 91.0 1005.0 0.0 W 0.0 0.0
02:30 8.7 91.0 1005.0 0.0 W 0.0 0.0
02:35 8.7 91.0 1005.0 0.0 W 0.0 0.0
02:40 8.7 91.0 1004.9 0.0 W 0.0 0.0
02:45 8.7 91.0 1004.8 0.0 W 0.0 0.0
02:50 8.6 91.0 1004.8 0.0 W 0.0 0.0
02:55 8.6 91.0 1004.7 0.0 W 0.0 0.0
03:00 8.6 91.0 1004.7 0.0 W 0.0 0.0
03:05 8.5 91.0 1004.7 0.0 W 0.0 0.0
03:10 8.5 91.0 1004.8 0.0 W 0.0 0.0
03:15 8.5 91.0 1004.8 0.0 W 0.0 0.0
03:20 8.4 91.0 1004.8 0.0 W 0.0 0.0
03:25 8.4 91.0 1004.8 0.0 W 0.0 0.0
03:30 8.4 91.0 1004.9 0.0 W 0.0 0.0
03:35 8.4 91.0 1004.8 0.0 W 0.0 0.0
03:40 8.4 91.0 1004.9 4.8 ESE 6.4 0.0
03:45 8.4 91.0 1004.9 0.0 ESE 6.4 0.0
03:50 8.3 91.0 1005.0 0.0 ESE 6.4 0.0
03:55 8.3 91.0 1005.1 0.0 ESE 0.0 0.0
04:00 8.3 92.0 1005.0 0.0 ESE 0.0 0.0
04:05 8.3 92.0 1005.0 0.0 ESE 0.0 0.0
04:10 8.3 92.0 1004.9 0.0 ESE 0.0 0.0
04:15 8.2 92.0 1005.0 0.0 ESE 6.4 0.0
04:20 8.2 92.0 1005.1 1.6 ESE 6.4 0.0
04:25 8.2 92.0 1005.1 0.0 ESE 3.2 0.0
04:30 8.1 92.0 1005.1 0.0 SE 3.2 0.0
04:35 8.0 92.0 1005.0 0.0 SE 1.6 0.0
04:40 7.9 92.0 1005.0 0.0 SE 0.0 0.0
04:45 7.9 92.0 1005.0 0.0 SE 0.0 0.0
04:50 7.9 92.0 1005.0 0.0 SE 0.0 0.0
04:55 7.9 92.0 1005.1 0.0 SE 0.0 0.0
05:00 7.9 92.0 1005.0 0.0 SE 0.0 0.0
05:05 7.9 92.0 1005.1 0.0 SE 0.0 0.0
05:10 7.9 92.0 1005.2 1.6 SE 3.2 0.0
05:15 7.9 92.0 1005.2 1.6 SE 3.2 0.0
05:20 8.0 92.0 1005.2 0.0 SE 6.4 0.0
05:25 8.0 92.0 1005.4 1.6 SE 8.0 0.0
05:30 8.0 92.0 1005.4 1.6 SE 8.0 0.0
05:35 8.1 91.0 1005.5 1.6 SE 6.4 0.0
05:40 8.1 91.0 1005.5 1.6 SE 6.4 0.0
05:45 8.2 91.0 1005.5 0.0 SE 6.4 0.0
05:50 8.2 91.0 1005.4 1.6 SE 6.4 0.0
05:55 8.3 91.0 1005.4 0.0 SE 6.4 0.0
06:00 8.3 91.0 1005.5 0.0 SE 6.4 0.0
06:05 8.4 91.0 1005.5 1.6 SE 6.4 0.0
06:10 8.5 91.0 1005.6 4.8 SE 8.0 0.0
06:15 8.6 90.0 1005.7 1.6 SW 9.7 0.0
06:20 8.6 90.0 1005.7 0.0 SSW 9.7 0.3
06:25 8.6 90.0 1005.8 6.4 W 8.0 0.0
06:30 8.5 91.0 1005.8 1.6 WSW 9.7 0.0
06:35 8.5 91.0 1005.9 0.0 WSW 8.0 0.3
06:40 8.4 91.0 1006.0 0.0 WSW 8.0 0.0
06:45 8.4 91.0 1006.0 0.0 WSW 8.0 1.3
06:50 8.4 91.0 1006.2 0.0 WSW 6.4 0.0
06:55 8.3 91.0 1006.2 0.0 W 6.4 2.5
07:00 8.2 91.0 1006.3 0.0 W 6.4 1.0
07:05 8.1 91.0 1006.2 0.0 W 0.0 0.5
07:10 8.0 92.0 1006.2 0.0 W 3.2 0.5
07:15 8.0 92.0 1006.2 0.0 W 3.2 0.0
07:20 8.1 92.0 1006.4 3.2 W 3.2 0.0
07:25 8.2 92.0 1006.3 0.0 W 3.2 0.0
07:30 8.3 92.0 1006.4 0.0 W 3.2 0.0
07:35 8.3 92.0 1006.5 0.0 S 9.7 0.0
07:40 8.4 92.0 1006.6 0.0 S 9.7 0.0
07:45 8.4 92.0 1006.6 3.2 S 4.8 0.0
07:50 8.4 92.0 1006.5 3.2 SSW 12.9 0.3
07:55 8.4 92.0 1006.5 8.0 SSW 19.3 0.0
08:00 8.6 92.0 1006.7 1.6 SW 12.9 0.0
08:05 8.7 92.0 1006.7 8.0 WSW 17.7 0.0
08:10 8.7 92.0 1006.9 8.0 SW 17.7 0.0
08:15 9.0 92.0 1006.8 8.0 SW 17.7 0.0
08:20 9.6 92.0 1006.8 11.3 SSW 19.3 0.0
08:25 9.9 92.0 1006.9 9.7 WSW 25.7 0.0
08:30 10.0 92.0 1006.8 19.3 W 25.7 0.0
08:35 10.0 92.0 1006.8 8.0 W 22.5 0.0
08:40 10.1 92.0 1006.9 8.0 WSW 19.3 0.0
08:45 10.3 92.0 1007.0 9.7 SW 17.7 0.0
08:50 10.3 92.0 1007.0 11.3 WSW 19.3 0.0
08:55 10.4 92.0 1007.0 11.3 NW 20.9 0.0
09:00 10.7 92.0 1007.1 8.0 SW 29.0 0.0
09:05 10.8 91.0 1007.0 9.7 SSW 29.0 0.0
09:10 10.8 91.0 1007.0 6.4 WNW 19.3 0.0
09:15 11.2 91.0 1007.0 8.0 WSW 19.3 0.0
09:20 11.2 90.0 1007.1 3.2 SW 17.7 0.0
09:25 11.4 89.0 1007.1 9.7 W 16.1 0.0
09:30 11.8 89.0 1007.3 14.5 W 16.1 0.0
09:35 11.9 87.0 1007.3 6.4 SW 16.1 0.0
09:40 11.8 84.0 1007.2 1.6 SW 12.9 0.0
09:45 11.8 84.0 1007.3 3.2 SSE 9.7 0.0
09:50 11.8 85.0 1007.5 8.0 SW 12.9 0.0
09:55 11.8 85.0 1007.3 9.7 SSW 12.9 0.0
10:00 12.0 85.0 1007.5 6.4 SSE 12.9 0.0
10:05 12.2 87.0 1007.5 0.0 SSE 12.9 0.0
10:10 12.2 87.0 1007.5 0.0 SSE 12.9 0.0
10:15 1007.5 0.0
10:20 1007.4 0.0
10:25 1007.3 0.0
10:30 11.7 90.0 1007.3 3.2 E 11.3 0.0
10:35 11.2 90.0 1007.6 0.0 ESE 14.5 0.0
10:40 11.1 91.0 1007.6 4.8 ESE 14.5 0.0
Màxima 12.2 92.0 1007.6 19.3 W 29.0 2.5
Mínima 7.8 84.0 1004.7
Total 6.7